Weather History for VTSG - April, 2014

Change the Weather History Date:

Sunday, April 6, 2014

  Actual Average (VTSP) Record (VTSP)
Temperature  
Mean Temperature 86 °F -  
Max Temperature 98 °F 91 °F 102 °F (1998)
Min Temperature 73 °F 77 °F 71 °F (2014)
Cooling Degree Days 20    
Growing Degree Days 36 (Base 50)    
Moisture  
Dew Point 71 °F    
Average Humidity 68    
Maximum Humidity 94    
Minimum Humidity 37    
Precipitation  
Precipitation 0.00 in - - ()
Sea Level Pressure  
Sea Level Pressure 29.88 in    
Wind  
Wind Speed 4 mph ()    
Max Wind Speed 13 mph    
Max Gust Speed -    
Visibility 5.0 miles    
Events Rain , Thunderstorm    
Averages and records for this station are not official NWS values.
T = Trace of Precipitation, MM = Missing Value Source: Averaged Metar Reports

Daily Weather History Graph

Daily Weather History Graph

Search for Another Location

Airport or City:

Trip Planner

Search our weather history database for the weather conditions in past years. The results will help you decide how hot, cold, wet, or windy it might be!

Date:

Astronomy

Apr. 06, 2014 Rise Set
Actual Time 6:19 AM ICT 6:33 PM ICT
Civil Twilight 5:58 AM ICT 6:54 PM ICT
Nautical Twilight 5:34 AM ICT 7:19 PM ICT
Astronomical Twilight 5:09 AM ICT 7:43 PM ICT
Moon 11:30 AM ICT (4/6) No Moon Set
Length of Visible Light 12h 56m
Length of Day
12h 13m
Waxing Crescent, 39% of the Moon is Illuminated
Apr 6
Waxing Crescent
Apr 7
First Quarter
Apr 15
Full
Apr 22
Last Quarter
Apr 29
New

Hourly Weather History & Observations

Time (ICT) Temp. Heat Index Dew Point Humidity Pressure Visibility Wind Dir Wind Speed Gust Speed Precip Events Conditions
12:00 AM 73.4 °F - 69.8 °F 88% 29.95 in 4.3 mi Calm Calm - N/A   Mostly Cloudy
6:00 AM 73.4 °F - 71.6 °F 94% 29.89 in 3.1 mi NE 3.5 mph - N/A   Scattered Clouds
7:00 AM 73.4 °F - 71.6 °F 94% 29.92 in 2.5 mi NE 4.6 mph - N/A   Scattered Clouds
8:00 AM 75.2 °F - 71.6 °F 89% 29.95 in 3.1 mi North 3.5 mph - N/A   Scattered Clouds
9:00 AM 82.4 °F 88.2 °F 73.4 °F 74% 29.95 in 6.2 mi North 9.2 mph - N/A   Partly Cloudy
10:00 AM 87.8 °F 95.6 °F 73.4 °F 62% 29.95 in 6.2 mi NE 5.8 mph - N/A   Unknown
11:00 AM 93.2 °F 102.4 °F 73.4 °F 52% 29.92 in 6.2 mi ENE 5.8 mph - N/A   Partly Cloudy
12:00 PM 95.0 °F 101.3 °F 69.8 °F 44% 29.92 in 6.2 mi NE 5.8 mph - N/A   Scattered Clouds
1:00 PM 95.0 °F 101.3 °F 69.8 °F 44% 29.86 in 6.2 mi East 5.8 mph - N/A   Partly Cloudy
2:00 PM 98.6 °F 105.5 °F 69.8 °F 39% 29.83 in 6.2 mi North 5.8 mph - N/A   Scattered Clouds
3:00 PM 98.6 °F 104.1 °F 68.0 °F 37% 29.80 in 6.2 mi NE 4.6 mph - N/A   Scattered Clouds
4:00 PM 96.8 °F 100.7 °F 66.2 °F 37% 29.80 in 6.2 mi WSW 3.5 mph - N/A   Mostly Cloudy
5:00 PM 93.2 °F 100.5 °F 71.6 °F 49% 29.80 in 6.2 mi SSW 10.4 mph - N/A   Scattered Clouds
6:00 PM - - - N/A% 29.80 in 6.2 mi SSW 5.8 mph - N/A   Scattered Clouds
7:00 PM 86.0 °F 95.1 °F 75.2 °F 70% 29.83 in 5.6 mi SSW 5.8 mph - N/A   Scattered Clouds
8:00 PM 86.0 °F 95.1 °F 75.2 °F 70% 29.83 in 3.7 mi SW 8.1 mph - N/A Rain , Thunderstorm Light Thunderstorms and Rain
9:00 PM 75.2 °F - 73.4 °F 94% 29.89 in 2.5 mi NNW 12.7 mph - N/A Rain , Thunderstorm Thunderstorms and Rain
10:00 PM 73.4 °F - 71.6 °F 94% 29.95 in 3.7 mi SW 5.8 mph - N/A Rain , Thunderstorm Light Thunderstorms and Rain
11:00 PM 73.4 °F - 69.8 °F 88% 29.92 in 3.7 mi North 5.8 mph - N/A Rain Light Rain